MTG-S1

Last updated on Sun Apr 12 2026 00:02:57 GMT+0000 (Coordinated Universal Time)

1 64723U 25143A 26101.30612948 -.00000030 00000+0 00000+0 0 9992 2 64723 0.6139 333.5770 0001892 359.9671 332.7201 1.00274184 2749
UTC large
Height (km)
Speed (km/s)
/
Latitude / Longitude
Inclination (degrees)
Orbital Period (minutes)
Azimuth
Elevation
Range (km)
Doppler Factor

Next 0 passes for location: London (51.5072 / 0.1276)

Sorry there are no passes over London.
MTG-S1